Newport Airport, OR

9:41 AM PDT on March 23, 2017 (GMT -0700)
Newport Municipal

Weather History for KONP - October, 2011

Change the Weather History Date:

Saturday, October 29, 2011

  Actual Average Record
Temperature  
Mean Temperature 53 °F -  
Max Temperature 60 °F 54 °F 62 °F (2010)
Min Temperature 46 °F 43 °F 33 °F (1996)
Degree Days  
Heating Degree Days 12    
Growing Degree Days 3 (Base 50)    
Moisture  
Dew Point 52 °F    
Average Humidity 96    
Maximum Humidity 100    
Minimum Humidity 77    
Precipitation  
Precipitation 0.00 in - - ()
Sea Level Pressure  
Sea Level Pressure 30.26 in    
Wind  
Wind Speed 3 mph (SE)    
Max Wind Speed 8 mph    
Max Gust Speed -    
Visibility 4 miles    
Events Fog , Rain    
Averages and records for this station are not official NWS values.
T = Trace of Precipitation, MM = Missing Value Source: NWS Daily Summary

Daily Weather History Graph

Daily Weather History Graph

Search for Another Location

Airport or City:

Trip Planner

Search our weather history database for the weather conditions in past years. The results will help you decide how hot, cold, wet, or windy it might be!

Date:

Astronomy

Oct. 29, 2011 Rise Set
Actual Time 7:49 AM PDT 6:09 PM PDT
Civil Twilight 7:19 AM PDT 6:39 PM PDT
Nautical Twilight 6:45 AM PDT 7:14 PM PDT
Astronomical Twilight 6:11 AM PDT 7:47 PM PDT
Moon 11:25 AM PDT (10/29) 8:31 PM PDT (10/29)
Length of Visible Light 11h 20m
Length of Day
10h 20m
Waxing Crescent, 12% of the Moon is Illuminated
Oct 29
Waxing Crescent
Nov 2
First Quarter
Nov 10
Full
Nov 18
Last Quarter
Nov 24
New

Hourly Weather History & Observations

Time (PDT) Temp. Windchill Dew Point Humidity Pressure Visibility Wind Dir Wind Speed Gust Speed Precip Events Conditions
12:55 AM 53.6 °F - 51.8 °F 94% 30.21 in 7.0 mi Calm Calm - N/A   Overcast
1:15 AM 51.8 °F - 51.8 °F 100% 30.21 in 1.0 mi Calm Calm - N/A   Overcast
1:35 AM 51.8 °F - 51.8 °F 100% 30.21 in 3.0 mi Calm Calm - N/A   Scattered Clouds
1:55 AM 51.8 °F - 50.0 °F 94% 30.21 in 4.0 mi Calm Calm - N/A   Scattered Clouds
2:15 AM 50.0 °F - 50.0 °F 100% 30.21 in 5.0 mi Calm Calm - N/A   Clear
2:35 AM 50.0 °F - 50.0 °F 100% 30.21 in 3.0 mi Calm Calm - N/A   Clear
3:15 AM 50.0 °F - 48.2 °F 94% 30.22 in 4.0 mi Calm Calm - N/A   Clear
3:35 AM 50.0 °F - 50.0 °F 100% 30.22 in 5.0 mi Calm Calm - N/A   Clear
3:55 AM 50.0 °F - 50.0 °F 100% 30.22 in 3.0 mi Calm Calm - N/A   Clear
4:15 AM 50.0 °F - 50.0 °F 100% 30.23 in 1.2 mi Calm Calm - N/A   Mist
4:35 AM 48.2 °F - 48.2 °F 100% 30.23 in 4.0 mi Calm Calm - N/A   Clear
4:55 AM 48.2 °F - 48.2 °F 100% 30.23 in 3.0 mi Calm Calm - N/A   Clear
5:15 AM 46.4 °F 45.2 °F 46.4 °F 100% 30.23 in 1.5 mi East 3.5 mph - N/A   Mist
5:55 AM 46.4 °F - 46.4 °F 100% 30.24 in 1.2 mi Calm Calm - N/A   Mist
6:15 AM 46.4 °F 45.2 °F 44.6 °F 93% 30.25 in 2.0 mi ENE 3.5 mph - N/A   Clear
6:35 AM 46.4 °F 43.5 °F 46.4 °F 100% 30.25 in 1.0 mi East 5.8 mph - N/A   Mist
6:55 AM 46.4 °F 44.3 °F 46.4 °F 100% 30.26 in 0.5 mi East 4.6 mph - N/A Fog Fog
7:15 AM 48.2 °F - 48.2 °F 100% 30.27 in 0.5 mi East 5.8 mph - N/A Fog Fog
7:35 AM 50.0 °F - 48.2 °F 94% 30.27 in 0.5 mi East 5.8 mph - N/A   Drizzle
7:55 AM 50.0 °F - 50.0 °F 100% 30.27 in 0.2 mi East 4.6 mph - N/A   Light Drizzle
8:15 AM 50.0 °F - 50.0 °F 100% 30.28 in 0.2 mi East 5.8 mph - N/A Fog Fog
8:35 AM 50.0 °F - 50.0 °F 100% 30.28 in 0.2 mi East 4.6 mph - N/A Fog Fog
8:55 AM 50.0 °F - 50.0 °F 100% 30.28 in 0.2 mi East 3.5 mph - N/A Fog Fog
9:15 AM 50.0 °F - 50.0 °F 100% 30.28 in 0.2 mi East 5.8 mph - N/A Fog Fog
9:35 AM 50.0 °F - 50.0 °F 100% 30.29 in 0.2 mi East 5.8 mph - N/A Fog Fog
10:35 AM 51.8 °F - 51.8 °F 100% 30.29 in 0.5 mi East 8.1 mph - N/A Fog Fog
10:55 AM 51.8 °F - 51.8 °F 100% 30.30 in 0.5 mi East 8.1 mph - N/A Fog Fog
11:15 AM 53.6 °F - 51.8 °F 94% 30.31 in 2.0 mi East 8.1 mph - N/A   Overcast
11:35 AM 53.6 °F - 53.6 °F 100% 30.30 in 7.0 mi East 6.9 mph - N/A   Overcast
11:55 AM 53.6 °F - 53.6 °F 100% 30.30 in 10.0 mi ENE 6.9 mph - N/A   Mostly Cloudy
12:15 PM 55.4 °F - 55.4 °F 100% 30.31 in 10.0 mi East 5.8 mph - N/A   Scattered Clouds
12:35 PM 57.2 °F - 55.4 °F 94% 30.30 in 10.0 mi ESE 3.5 mph - N/A   Scattered Clouds
12:55 PM 60.8 °F - 55.4 °F 82% 30.29 in 10.0 mi SE 3.5 mph - N/A   Scattered Clouds
1:15 PM 60.8 °F - 55.4 °F 82% 30.29 in 10.0 mi SE 4.6 mph - N/A   Scattered Clouds
1:35 PM 59.0 °F - 53.6 °F 82% 30.29 in 5.0 mi West 4.6 mph - N/A   Haze
1:55 PM 59.0 °F - 53.6 °F 82% 30.29 in 10.0 mi WNW 4.6 mph - N/A   Scattered Clouds
2:15 PM 59.0 °F - 53.6 °F 82% 30.28 in 7.0 mi SW 5.8 mph - N/A   Clear
2:35 PM 59.0 °F - 51.8 °F 77% 30.28 in 10.0 mi WSW 5.8 mph - N/A   Clear
2:55 PM 59.0 °F - 53.6 °F 82% 30.27 in 7.0 mi SSW 5.8 mph - N/A   Scattered Clouds
3:15 PM 59.0 °F - 53.6 °F 82% 30.28 in 7.0 mi SSW 6.9 mph - N/A   Scattered Clouds
3:35 PM 55.4 °F - 53.6 °F 94% 30.27 in 2.0 mi SSW 5.8 mph - N/A   Overcast
4:15 PM 55.4 °F - 55.4 °F 100% 30.27 in 4.0 mi SW 4.6 mph - N/A   Overcast
4:35 PM 55.4 °F - 55.4 °F 100% 30.27 in 3.0 mi SSW 5.8 mph - N/A   Overcast
4:55 PM 57.2 °F - 55.4 °F 94% 30.27 in 4.0 mi SSW 4.6 mph - N/A   Overcast
5:15 PM 57.2 °F - 55.4 °F 94% 30.26 in 2.5 mi SSW 6.9 mph - N/A   Overcast
5:35 PM 57.2 °F - 55.4 °F 94% 30.26 in 2.0 mi SSW 8.1 mph - N/A   Overcast
5:55 PM 55.4 °F - 55.4 °F 100% 30.25 in 1.2 mi South 5.8 mph - N/A   Drizzle
6:15 PM 55.4 °F - 55.4 °F 100% 30.24 in 1.8 mi Calm Calm - N/A   Light Drizzle
6:35 PM 55.4 °F - 55.4 °F 100% 30.24 in 4.0 mi Calm Calm - N/A   Overcast
6:55 PM 55.4 °F - 55.4 °F 100% 30.24 in 4.0 mi Calm Calm - N/A   Overcast
7:15 PM 55.4 °F - 55.4 °F 100% 30.24 in 4.0 mi Calm Calm - N/A Rain Light Rain
7:35 PM 55.4 °F - 55.4 °F 100% 30.24 in 2.5 mi Calm Calm - N/A   Overcast
7:55 PM 55.4 °F - 55.4 °F 100% 30.24 in 1.8 mi Calm Calm - N/A   Overcast
8:15 PM 55.4 °F - 55.4 °F 100% 30.24 in 0.8 mi Calm Calm - N/A   Overcast
8:35 PM 55.4 °F - 55.4 °F 100% 30.24 in 1.5 mi Calm Calm - N/A   Overcast
8:55 PM 55.4 °F - 55.4 °F 100% 30.23 in 2.0 mi Calm Calm - N/A   Overcast
9:15 PM 55.4 °F - 55.4 °F 100% 30.23 in 5.0 mi East 3.5 mph - N/A   Overcast
9:35 PM 55.4 °F - 55.4 °F 100% 30.23 in 3.0 mi WSW 3.5 mph - N/A   Overcast
9:55 PM 55.4 °F - 55.4 °F 100% 30.23 in 1.0 mi Calm Calm - N/A   Overcast
10:15 PM 55.4 °F - 55.4 °F 100% 30.23 in 2.0 mi Calm Calm - N/A   Overcast
10:35 PM 55.4 °F - 55.4 °F 100% 30.23 in 3.0 mi Calm Calm - N/A   Overcast
10:55 PM 55.4 °F - 55.4 °F 100% 30.22 in 7.0 mi Calm Calm - N/A   Overcast
11:15 PM 55.4 °F - 55.4 °F 100% 30.22 in 10.0 mi Calm Calm - N/A   Overcast
11:35 PM 55.4 °F - 55.4 °F 100% 30.21 in 10.0 mi Calm Calm - N/A   Overcast
11:55 PM 55.4 °F - 55.4 °F 100% 30.22 in 3.0 mi Calm Calm - N/A   Overcast